DateTimeUTC,F1_A11,F1_S11,BsB_S11,BsG_S11,BsR_S11,BbsB_S11,BbsG_S11,BbsR_S11,BaB_A11,BaG_A11,BaR_A11,Tu_S11,T_S11,Uu_S11,U_S11,P_S11,T1_A11
2021-10-04T08:00:00Z,00000200,21000000,,,,,,,0000.79,0000.89,0000.94,16.4,23.6,,00.0,0667.2,30.8
2021-10-04T08:01:00Z,00000200,21000000,,,,,,,0000.75,0000.47,0000.57,16.4,23.6,,00.0,0667.2,30.8
2021-10-04T08:02:00Z,00000200,21000000,,,,,,,0000.72,0000.48,0000.27,16.4,23.5,,00.0,0667.1,30.8
2021-10-04T08:03:00Z,00000200,61000000,,,,,,,0003.09,0003.10,0002.11,16.4,23.6,,00.0,0667.1,30.8
2021-10-04T08:04:00Z,00000200,41000000,0000.71,0000.37,-000.21,0000.47,0000.00,0000.02,0001.64,0001.16,0001.08,16.7,23.5,,00.0,0668.0,30.9
2021-10-04T08:05:00Z,00000200,01000000,0001.70,0000.91,0000.60,0001.22,0000.25,0000.10,0012.60,0011.95,0009.37,16.8,23.5,,00.0,0668.1,30.9
2021-10-04T08:06:00Z,00000200,01000000,0000.73,0000.96,0000.70,0000.23,0000.35,0000.16,0018.67,0016.89,0013.29,16.9,23.5,,00.0,0668.1,30.9
2021-10-04T08:07:00Z,00000200,01000000,0000.65,0000.20,0000.10,-000.08,0000.14,0000.10,0001.37,0001.57,0001.40,16.9,23.5,,00.0,0668.1,30.9
2021-10-04T08:08:00Z,00000200,01000000,0000.32,0000.23,-000.04,0000.25,0000.05,-000.08,0000.26,0000.09,0000.17,16.9,23.5,,00.0,0668.1,30.9
2021-10-04T08:09:00Z,00000200,01000000,0000.52,0000.50,0000.15,0000.30,-000.07,0000.13,-000.19,-000.08,0000.09,16.8,23.4,,00.0,0668.0,30.9
2021-10-04T08:10:00Z,00000200,01000000,0000.80,0000.38,0000.10,0000.52,-000.01,-000.06,0000.31,0000.15,-000.26,16.8,23.4,,00.0,0668.1,30.9
2021-10-04T08:11:00Z,00000200,01000000,0000.28,0000.55,-000.19,0000.85,-000.06,-000.15,0000.43,0000.47,0000.36,16.7,23.4,,00.0,0668.1,30.8
2021-10-04T08:12:00Z,00000200,01000000,-000.12,0000.29,-000.12,0000.57,-000.39,-000.17,0001.57,0001.14,0001.07,16.7,23.4,,00.0,0668.1,30.8
2021-10-04T08:13:00Z,00000200,01000000,0000.81,0000.22,-000.03,-000.45,0000.10,0000.15,0003.89,0003.71,0002.93,16.6,23.3,,00.0,0668.1,30.8
2021-10-04T08:14:00Z,00000200,01000000,0000.46,0000.41,0000.41,0000.69,0000.51,0000.15,0006.77,0006.01,0004.37,16.6,23.3,,00.0,0668.1,30.8
2021-10-04T08:15:00Z,00000200,01000000,0000.43,0000.61,0000.35,0000.65,0000.17,0000.23,0003.94,0003.93,0003.29,16.6,23.3,,00.0,0668.1,30.8
2021-10-04T08:16:00Z,00000200,01000000,0000.29,0000.58,-000.24,0000.20,-000.01,0000.26,0000.67,0000.58,0000.73,16.6,23.3,,00.0,0668.1,30.8
2021-10-04T08:17:00Z,00000200,01000000,-000.09,0000.01,0000.25,-000.00,0000.09,0000.03,0001.14,0000.99,0000.21,16.6,23.3,,00.0,0668.1,30.8
2021-10-04T08:18:00Z,00000200,01000000,0001.65,0001.20,0000.38,0000.16,0000.34,0000.22,0010.27,0009.50,0007.51,16.6,23.3,,00.0,0668.1,30.8
2021-10-04T08:19:00Z,00000200,01000000,0010.42,0007.02,0004.70,0002.67,0001.88,0001.45,0128.87,0118.36,0093.61,16.7,23.3,,00.0,0668.0,30.9
2021-10-04T08:20:00Z,00000200,01000000,0021.22,0015.79,0009.66,0004.63,0003.80,0002.41,0283.47,0260.52,0206.30,16.8,23.3,,00.0,0668.0,30.9
2021-10-04T08:21:00Z,00000200,01000000,0025.45,0018.49,0012.05,0004.59,0004.33,0003.05,0347.05,0320.20,0254.74,16.8,23.4,,00.0,0668.0,30.9
2021-10-04T08:22:00Z,00000200,01000000,0024.19,0018.60,0011.22,0005.03,0004.36,0002.82,0344.13,0317.90,0253.97,16.9,23.4,,00.0,0668.1,30.9
2021-10-04T08:23:00Z,00000200,01000000,0010.36,0007.54,0004.85,0001.93,0001.41,0001.46,0160.07,0149.04,0119.46,16.9,23.4,,00.0,0668.1,30.9
2021-10-04T08:24:00Z,00000200,01000000,0001.75,0000.87,-000.02,0001.14,0000.27,0000.15,0013.43,0012.28,0010.21,16.8,23.4,,00.0,0668.1,30.9
2021-10-04T08:25:00Z,00000200,01000000,0000.50,0000.12,-000.02,0000.81,-000.01,0000.21,0002.66,0002.62,0001.59,16.8,23.4,,00.0,0668.1,30.9
2021-10-04T08:26:00Z,00000200,01000000,0000.60,0000.40,0000.08,0000.32,-000.10,0000.14,0001.60,0001.62,0001.44,16.7,23.3,,00.0,0668.1,30.8
2021-10-04T08:27:00Z,00000200,01000000,0000.14,0000.38,0000.10,0000.69,-000.00,0000.25,0001.57,0001.17,0001.05,16.7,23.3,,00.0,0668.1,30.8
2021-10-04T08:28:00Z,00000200,01000000,0000.49,0000.23,0000.06,-000.20,-000.03,-000.05,0000.99,0001.07,0000.47,16.6,23.3,,00.0,0668.1,30.8
2021-10-04T08:29:00Z,00000200,01000000,-000.19,0000.32,-000.22,-000.16,-000.07,0000.20,0000.88,0000.47,0000.41,16.6,23.3,,00.0,0668.1,30.8
2021-10-04T08:30:00Z,00000200,01000000,0000.66,0000.25,-000.17,-000.49,0000.20,-000.10,0000.68,0000.86,0000.53,16.6,23.2,,00.0,0668.1,30.8
2021-10-04T08:31:00Z,00000200,01000000,0000.20,0000.50,0000.01,0000.42,0000.09,-000.15,0001.19,0001.12,0000.95,16.6,23.2,,00.0,0668.1,30.8
2021-10-04T08:32:00Z,00000200,01000000,-000.00,0000.16,0000.09,0000.83,-000.01,0000.37,0000.43,0000.32,0000.43,16.6,23.2,,00.0,0668.1,30.8
2021-10-04T08:33:00Z,00000200,01000000,-000.41,0000.22,-000.12,0000.59,-000.01,0000.10,0000.66,0000.78,0000.39,16.7,23.2,,00.0,0668.1,30.8
2021-10-04T08:34:00Z,00000200,01000000,0000.62,0000.10,-000.11,-000.15,-000.08,0000.15,0000.53,0000.40,0000.47,16.7,23.3,,00.0,0668.1,30.8
2021-10-04T08:35:00Z,00000200,01000000,-000.40,0000.30,-000.13,0000.49,-000.21,0000.20,0000.82,0000.54,0000.53,16.8,23.3,,00.0,0668.1,30.8
2021-10-04T08:36:00Z,00000200,01000000,0000.56,0000.17,-000.15,-000.45,0000.06,0000.32,0000.28,0000.47,0000.20,16.9,23.3,,00.0,0668.1,30.9
2021-10-04T08:37:00Z,00000200,01000000,0000.09,0000.22,0000.16,0000.28,0000.05,0000.29,0000.51,0000.70,0000.71,16.9,23.4,,00.0,0668.1,30.9
2021-10-04T08:38:00Z,00000200,01000000,-000.72,0000.21,-000.31,0000.50,-000.04,-000.05,0000.45,0000.25,0000.09,16.9,23.4,,00.0,0668.1,30.9
2021-10-04T08:39:00Z,00000200,01000000,0000.13,0000.42,-000.16,0000.69,-000.01,-000.03,0000.27,0000.26,0000.17,16.9,23.4,,00.0,0668.1,30.9
2021-10-04T08:40:00Z,00000200,01000000,0000.76,0000.28,0000.01,0000.34,0000.46,0000.09,0000.35,0000.31,0000.07,16.9,23.3,,00.0,0668.1,30.8
2021-10-04T08:41:00Z,00000200,01000000,0000.37,0000.30,0000.06,-000.05,-000.38,0000.02,0000.39,0000.25,0000.48,16.8,23.3,,00.0,0668.1,30.8
2021-10-04T08:42:00Z,00000200,01000000,-000.33,0000.06,0000.09,-000.02,-000.26,0000.06,0000.16,0000.30,-000.03,16.8,23.3,,00.0,0668.1,30.8
2021-10-04T08:43:00Z,00000200,01000000,0000.23,0000.11,-000.18,-000.06,0000.16,-000.06,0000.48,0000.59,0000.01,16.7,23.3,,00.0,0668.1,30.8
2021-10-04T08:44:00Z,00000200,01000000,0000.16,0000.42,-000.19,0000.19,0000.03,-000.09,0000.22,-000.12,0000.47,16.6,23.2,,00.0,0668.1,30.8
2021-10-04T08:45:00Z,00000200,01000000,0000.69,0000.15,0000.31,0000.78,-000.06,0000.02,0000.38,0000.45,-000.10,16.6,23.2,,00.0,0668.2,30.8
2021-10-04T08:46:00Z,00000200,01000000,0000.56,0000.20,0000.08,0000.60,-000.01,0000.35,0000.49,0000.28,0000.80,16.6,23.2,,00.0,0668.1,30.8
2021-10-04T08:47:00Z,00000200,01000000,0000.25,0000.31,0000.12,0000.07,0000.13,0000.08,0000.49,0000.28,0000.17,16.7,23.2,,00.0,0668.1,30.8
2021-10-04T08:48:00Z,00000200,01000000,0000.76,-000.06,-000.30,0000.41,0000.13,0000.12,0000.57,0000.39,0000.25,16.7,23.3,,00.0,0668.1,30.8
2021-10-04T08:49:00Z,00000200,01000000,0000.77,0000.52,-000.00,0000.89,-000.09,-000.04,0000.16,0000.43,0000.24,16.8,23.3,,00.0,0668.2,30.8
2021-10-04T08:50:00Z,00000200,01000000,0000.76,0000.25,0000.28,0000.10,0000.13,-000.08,0000.51,0000.50,0000.28,16.8,23.3,,00.0,0668.2,30.9
2021-10-04T08:51:00Z,00000200,01000000,0000.78,0000.51,0000.32,0000.15,0000.22,0000.05,-000.00,0000.00,0000.20,16.9,23.4,,00.0,0668.2,30.9
2021-10-04T08:52:00Z,00000200,01000000,0000.49,0000.41,-000.10,0000.13,0000.11,0000.14,0000.30,0000.57,-000.01,17.0,23.4,,00.0,0668.2,30.9
2021-10-04T08:53:00Z,00000200,01000000,0000.33,0000.58,-000.13,-000.36,-000.13,0000.12,-000.10,0000.23,0000.47,17.0,23.4,,00.0,0668.2,30.9
2021-10-04T08:54:00Z,00000200,01000000,-000.01,0000.56,0000.13,-000.24,0000.07,-000.01,0000.37,-000.04,-000.05,17.0,23.4,,00.0,0668.2,30.9
2021-10-04T08:55:00Z,00000200,01000000,0000.80,0000.41,-000.21,0000.54,0000.03,0000.16,0000.23,0000.07,0000.31,16.9,23.4,,00.0,0668.2,30.9
2021-10-04T08:56:00Z,00000200,01000000,0000.57,0000.59,0000.02,-000.40,0000.24,0000.12,0000.29,0000.47,0000.01,16.9,23.4,,00.0,0668.1,30.9
2021-10-04T08:57:00Z,00000200,41000000,,,,,,,0000.44,0000.26,0000.28,16.9,23.4,,00.0,0668.1,30.8
2021-10-04T08:58:00Z,00000200,61000000,,,,,,,0000.31,0000.11,0000.36,16.4,23.5,,00.0,0667.1,30.8
2021-10-04T08:59:00Z,00000200,21000000,,,,,,,0000.18,0000.65,0000.07,16.4,23.6,,00.0,0667.1,30.8
